Waarnemingen

Advertentie
Mijn weer
Stockholm/Bromma, Zweden (2464): temperatuur & dauwpunt: 08.08.2018 17:00:00 - 14.08.2018 17:00:00 (CEST)Stockholm/Bromma, Zweden (2464): windsnelheid: 08.08.2018 17:00:00 - 14.08.2018 17:00:00 (CEST)Stockholm/Bromma, Zweden (2464): windrichting: 08.08.2018 17:00:00 - 14.08.2018 17:00:00 (CEST)Stockholm/Bromma, Zweden (2464): luchtdruk: 08.08.2018 17:00:00 - 14.08.2018 17:00:00 (CEST)Stockholm/Bromma, Zweden (2464): zicht: 08.08.2018 17:00:00 - 14.08.2018 17:00:00 (CEST)
Datum & Tijd tt [°C] td [°C] ff [km/u] ff [kn] dd ppp [hPa] vv [km]
14.08.2018 17:00:00 17,8 12,1 11 6 ZO 1009,3 10
14.08.2018 16:00:00 18,6 11,4 11 6 OZO 1009,3 10
14.08.2018 15:00:00 18,9 8,0 15 8 ZO 1009,8 10
14.08.2018 14:00:00 19,0 11,1 16 9 OZO 1009,9 10
14.08.2018 13:00:00 19,5 7,6 18 10 ZO 1009,9 10
14.08.2018 12:00:00 20,5 7,1 13 7 OZO 1009,9 10
14.08.2018 11:00:00 20,2 5,8 8 4 ZO 1010,1 10
14.08.2018 10:00:00 20,4 9,0 2 1 - 1010,3 10
14.08.2018 09:00:00 18,8 11,1 2 1 - 1010,3 10
14.08.2018 08:00:00 16,0 12,4 0 0 N 1010,4 10
14.08.2018 07:00:00 13,0 12,1 0 0 N 1010,5 10
14.08.2018 06:00:00 10,5 10,3 0 0 N 1010,5 10
14.08.2018 05:00:00 9,4 9,3 0 0 N 1010,5 10
14.08.2018 04:00:00 9,2 9,1 0 0 N 1010,6 10
14.08.2018 03:00:00 10,3 10,0 0 0 N 1010,4 10
14.08.2018 02:00:00 10,2 9,7 0 0 N 1010,4 10
14.08.2018 01:00:00 11,1 10,6 0 0 N 1010,3 10
14.08.2018 00:00:00 12,0 11,1 0 0 N 1010,1 10
13.08.2018 23:00:00 12,9 10,8 5 3 Z 1009,9 10
13.08.2018 22:00:00 12,9 9,5 4 2 - 1010,0 10
13.08.2018 21:00:00 15,1 9,2 4 2 ZZW 1009,8 10
13.08.2018 20:00:00 17,5 8,1 8 4 WZW 1009,5 10
13.08.2018 19:00:00 19,8 6,5 11 6 W 1009,5 10
13.08.2018 18:00:00 20,2 6,5 15 8 W 1009,4 10
13.08.2018 17:00:00 20,2 5,0 15 8 W 1009,5 10
13.08.2018 16:00:00 20,0 7,0 16 9 WNW 1009,5 10
13.08.2018 15:00:00 19,8 7,5 13 7 WZW 1009,4 10
13.08.2018 14:00:00 19,2 8,2 15 8 W 1009,7 10
13.08.2018 13:00:00 18,8 7,2 15 8 WNW 1009,9 10
13.08.2018 12:00:00 18,0 7,4 16 9 W 1009,8 10
13.08.2018 11:00:00 17,3 8,7 15 8 WNW 1009,9 10
13.08.2018 10:00:00 16,5 9,4 13 7 W 1009,7 10
13.08.2018 09:00:00 15,7 8,9 9 5 W 1009,4 10
13.08.2018 08:00:00 14,7 9,9 9 5 W 1009,4 10
13.08.2018 07:00:00 13,6 11,6 9 5 W 1009,0 10
13.08.2018 06:00:00 12,1 11,3 5 3 W 1009,0 10
13.08.2018 05:00:00 12,0 11,5 5 3 W 1008,8 10
13.08.2018 04:00:00 12,1 11,5 9 5 WZW 1008,4 10
13.08.2018 03:00:00 12,4 11,5 11 6 W 1008,2 10
13.08.2018 02:00:00 12,7 11,6 9 5 W 1008,2 10
13.08.2018 01:00:00 12,6 11,7 11 6 W 1008,1 10
13.08.2018 00:00:00 12,6 11,8 9 5 W 1008,1 10
12.08.2018 23:00:00 12,7 11,4 15 8 W 1007,7 10
12.08.2018 22:00:00 12,6 11,5 15 8 W 1007,6 10
12.08.2018 21:00:00 12,6 11,7 15 8 WNW 1007,4 10
12.08.2018 20:00:00 12,5 11,4 16 9 NW 1006,8 10
12.08.2018 19:00:00 13,2 12,1 21 11 NW 1006,1 10
12.08.2018 18:00:00 14,0 12,7 18 10 WNW 1005,5 10
12.08.2018 17:00:00 14,3 12,3 18 10 NW 1005,2 10
12.08.2018 16:00:00 14,7 12,9 11 6 W 1004,5 10
12.08.2018 15:00:00 14,8 12,8 11 6 W 1004,3 10
12.08.2018 14:00:00 16,6 10,9 15 8 W 1003,9 10
12.08.2018 13:00:00 15,5 12,3 13 7 NW 1003,6 10
12.08.2018 12:00:00 15,2 12,9 11 6 NW 1003,5 10
12.08.2018 11:00:00 15,5 12,3 8 4 WNW 1003,3 10
12.08.2018 10:00:00 14,5 12,5 13 7 WNW 1003,3 10
12.08.2018 09:00:00 15,5 12,4 4 2 NW 1003,4 10
12.08.2018 08:00:00 14,3 12,5 5 3 NNW 1003,5 10
12.08.2018 07:00:00 13,5 12,9 5 3 - 1004,1 10
12.08.2018 06:00:00 12,5 12,0 5 3 N 1004,3 10
12.08.2018 05:00:00 12,6 12,1 5 3 NW 1005,1 10
12.08.2018 04:00:00 12,6 12,1 16 9 NNO 1006,0 9
12.08.2018 03:00:00 13,9 12,9 4 2 - 1006,6 10
12.08.2018 02:00:00 14,1 13,0 5 3 NW 1007,3 10
12.08.2018 01:00:00 15,1 11,9 5 3 ZW 1008,1 10
12.08.2018 00:00:00 17,0 9,2 13 7 ZZW 1009,0 10
11.08.2018 23:00:00 17,8 12,3 13 7 ZO 1009,3 10
11.08.2018 22:00:00 17,9 11,2 9 5 ZO 1010,1 10
11.08.2018 21:00:00 18,4 10,5 11 6 ZZO 1010,8 10
11.08.2018 20:00:00 19,0 10,3 13 7 Z 1011,2 10
11.08.2018 19:00:00 19,7 11,2 18 10 ZZW 1011,7 10
11.08.2018 18:00:00 20,8 10,6 21 11 Z 1012,0 10
11.08.2018 17:00:00 22,2 10,0 15 8 ZZW 1012,4 10
11.08.2018 16:00:00 22,5 9,3 15 8 ZW 1013,0 10
11.08.2018 15:00:00 23,0 5,9 16 9 ZW 1013,5 10
11.08.2018 14:00:00 23,8 6,6 16 9 WZW 1014,1 10
11.08.2018 13:00:00 22,0 6,2 16 9 ZZW 1014,7 10
11.08.2018 12:00:00 21,4 6,5 18 10 WZW 1015,2 10
11.08.2018 11:00:00 20,5 7,1 18 10 ZW 1015,6 10
11.08.2018 10:00:00 19,8 8,2 24 13 W 1015,4 10
11.08.2018 09:00:00 18,7 9,2 18 10 ZW 1015,4 10
11.08.2018 08:00:00 17,5 10,1 16 9 ZW 1015,3 10
11.08.2018 07:00:00 16,1 10,2 15 8 ZZW 1015,2 10
11.08.2018 06:00:00 15,1 10,1 13 7 ZZW 1014,9 10
11.08.2018 05:00:00 14,8 9,8 13 7 ZZW 1014,4 10
11.08.2018 04:00:00 15,5 9,4 13 7 ZZW 1014,2 10
11.08.2018 03:00:00 15,9 9,3 15 8 ZW 1013,9 10
11.08.2018 02:00:00 16,6 9,5 18 10 ZW 1013,8 10
11.08.2018 01:00:00 17,2 8,9 18 10 ZW 1013,8 10
11.08.2018 00:00:00 17,8 8,6 21 11 ZW 1013,8 10
10.08.2018 23:00:00 18,5 8,2 26 14 ZW 1013,5 10
10.08.2018 22:00:00 19,5 9,4 22 12 ZW 1012,8 10
10.08.2018 21:00:00 20,7 9,0 22 12 ZW 1011,8 10
10.08.2018 20:00:00 22,4 10,8 24 13 WZW 1010,7 10
10.08.2018 19:00:00 24,1 10,4 26 14 ZW 1009,8 10
10.08.2018 18:00:00 25,1 10,6 26 14 WZW 1009,2 10
10.08.2018 17:00:00 25,8 12,6 26 14 ZW 1009,0 10
10.08.2018 16:00:00 26,5 13,6 22 12 Z 1008,4 10
10.08.2018 15:00:00 27,2 16,8 28 15 Z 1007,6 10
10.08.2018 14:00:00 27,5 17,9 22 12 Z 1007,5 10
10.08.2018 13:00:00 27,3 18,3 28 15 Z 1007,3 10
10.08.2018 12:00:00 26,3 19,2 26 14 Z 1007,4 10
10.08.2018 11:00:00 26,7 19,1 24 13 ZZO 1007,2 10
10.08.2018 10:00:00 24,1 20,6 24 13 ZO 1007,6 10
10.08.2018 09:00:00 22,5 21,0 9 5 ZO 1007,9 10
10.08.2018 08:00:00 23,2 20,3 16 9 ZZO 1008,7 10
10.08.2018 07:00:00 22,7 19,9 16 9 OZO 1008,6 10
10.08.2018 06:00:00 21,7 19,8 16 9 OZO 1009,8 10
10.08.2018 05:00:00 20,7 19,0 15 8 OZO 1010,7 10
10.08.2018 04:00:00 20,5 18,6 8 4 ZO 1011,7 10
10.08.2018 03:00:00 21,0 18,9 11 6 ZO 1012,0 10
10.08.2018 02:00:00 21,1 18,9 9 5 ZO 1012,5 10
10.08.2018 01:00:00 21,1 19,2 11 6 ZO 1013,3 10
10.08.2018 00:00:00 21,0 18,9 5 3 ZZO 1013,9 10
09.08.2018 23:00:00 21,7 18,9 8 4 ZZO 1013,8 10
09.08.2018 22:00:00 22,9 18,2 8 4 Z 1013,8 10
09.08.2018 21:00:00 24,1 18,3 11 6 Z 1014,0 10
09.08.2018 20:00:00 25,2 17,9 13 7 Z 1013,8 10
09.08.2018 19:00:00 26,3 17,9 18 10 ZZW 1013,5 10
09.08.2018 18:00:00 27,4 18,1 15 8 ZZW 1013,3 10
09.08.2018 17:00:00 29,0 17,5 13 7 ZW 1013,0 10
09.08.2018 16:00:00 29,0 17,2 13 7 ZW 1013,1 10
09.08.2018 15:00:00 28,1 17,3 15 8 W 1013,6 10
09.08.2018 14:00:00 28,3 18,1 11 6 WZW 1013,5 10
09.08.2018 13:00:00 27,3 18,3 15 8 W 1013,6 10
09.08.2018 12:00:00 26,6 18,5 11 6 WZW 1013,5 10
09.08.2018 11:00:00 26,0 17,9 15 8 WZW 1013,3 10
09.08.2018 10:00:00 25,4 17,6 9 5 ZZW 1012,9 10
09.08.2018 09:00:00 23,2 19,4 8 4 ZZW 1012,7 10
09.08.2018 08:00:00 21,9 19,1 4 2 - 1012,4 10
09.08.2018 07:00:00 21,8 18,4 9 5 ZZO 1012,6 10
09.08.2018 06:00:00 21,4 17,0 9 5 ZZO 1012,5 10
09.08.2018 05:00:00 21,6 17,6 9 5 ZZO 1011,7 10
09.08.2018 04:00:00 22,5 17,6 21 11 OZO 1010,9 10
09.08.2018 03:00:00 22,3 18,1 2 1 - 1011,3 10
09.08.2018 02:00:00 23,7 17,9 18 10 ZZW 1012,5 10
09.08.2018 01:00:00 24,0 16,8 13 7 Z 1012,1 10
09.08.2018 00:00:00 23,9 15,9 16 9 ZZO 1011,8 10
08.08.2018 23:00:00 23,9 15,9 21 11 ZZO 1011,8 10
08.08.2018 22:00:00 24,2 15,7 22 12 ZZO 1011,5 10
08.08.2018 21:00:00 25,2 14,6 24 13 ZZO 1011,3 10
08.08.2018 20:00:00 26,4 10,5 24 13 ZZO 1011,2 10
08.08.2018 19:00:00 27,3 9,2 24 13 ZZO 1011,0 10
08.08.2018 18:00:00 27,6 11,2 28 15 Z 1011,3 10
08.08.2018 17:00:00 29,2 9,8 28 15 Z 1011,5 10

tt = temperatuur
td = dauwpunt
ff = windsnelheid
dd = windrichting
ppp = luchtdruk
vv = zicht

Weerstations in de omgeving